Weather History for KCWN - January, 2014

Change the Weather History Date:

Wednesday, January 22, 2014

  Actual Average (KIZG) Record (KIZG)
Temperature  
Mean Temperature 30 °F -  
Max Temperature 38 °F 25 °F 48 °F (1997)
Min Temperature 22 °F 2 °F -27 °F (2005)
Degree Days  
Heating Degree Days 34    
Moisture  
Dew Point 5 °F    
Average Humidity 36    
Maximum Humidity 89    
Minimum Humidity 17    
Precipitation  
Precipitation 0.00 in - - ()
Sea Level Pressure  
Sea Level Pressure 30.10 in    
Wind  
Wind Speed 10 mph (South)    
Max Wind Speed 17 mph    
Max Gust Speed 24 mph    
Averages and records for this station are not official NWS values.
T = Trace of Precipitation, MM = Missing Value Source: NWS Daily Summary

Daily Weather History Graph

Daily Weather History Graph

Search for Another Location

Airport or City:

Trip Planner

Search our weather history database for the weather conditions in past years. The results will help you decide how hot, cold, wet, or windy it might be!

Date:

Astronomy

Jan. 22, 2014 Rise Set
Actual Time 7:11 AM EST 4:41 PM EST
Civil Twilight 6:40 AM EST 5:12 PM EST
Nautical Twilight 6:04 AM EST 5:48 PM EST
Astronomical Twilight 5:30 AM EST 6:22 PM EST
Moon 11:26 PM EST (1/22) 9:56 AM EST (1/22)
Length of Visible Light 10h 32m
Length of Day
9h 29m
Waning Gibbous, 65% of the Moon is Illuminated
Jan 22
Waning Gibbous
Jan 24
Last Quarter
Jan 30
New
Feb 6
First Quarter
Feb 14
Full

Hourly Weather History & Observations

Time (EST) Temp. Windchill Dew Point Humidity Pressure Visibility Wind Dir Wind Speed Gust Speed Precip Events Conditions
12:56 AM 36.9 °F 29.1 °F -3.1 °F 18% 30.16 in - SSE 11.5 mph - N/A   Clear
1:56 AM 38.3 °F 29.0 °F -3.6 °F 17% 30.15 in - South 17.3 mph 24.2 mph N/A   Clear
2:56 AM 37.0 °F 27.4 °F 0.3 °F 21% 30.13 in - SSW 17.3 mph 20.7 mph N/A   Clear
3:56 AM 34.2 °F 27.5 °F -2.9 °F 21% 30.11 in - SSE 8.1 mph - N/A   Clear
4:56 AM 34.9 °F 29.0 °F -3.3 °F 20% 30.02 in - South 6.9 mph - N/A   Clear
5:56 AM 29.8 °F 24.9 °F -2.6 °F 25% 30.06 in - NW 4.6 mph - N/A   Clear
6:56 AM 30.9 °F 25.2 °F -4.9 °F 21% 30.06 in - WNW 5.8 mph - N/A   Partly Cloudy
7:56 AM 30.7 °F 27.3 °F -3.5 °F 23% 30.10 in - West 3.5 mph - N/A   Clear
8:56 AM 29.7 °F 26.1 °F -4.0 °F 23% 30.08 in - WNW 3.5 mph - N/A   Clear
9:56 AM 31.8 °F - -2.6 °F 23% 30.10 in - Variable 1.2 mph - N/A   Mostly Cloudy
10:56 AM 34.3 °F 31.4 °F -4.4 °F 19% 30.10 in - SSE 3.5 mph - N/A   Mostly Cloudy
11:56 AM 35.6 °F 28.6 °F -0.0 °F 22% 30.10 in - SE 9.2 mph - N/A   Partly Cloudy
12:56 PM 37.2 °F 29.6 °F 0.3 °F 21% 30.09 in - SE 11.5 mph - N/A   Clear
1:56 PM 37.0 °F 28.1 °F 1.4 °F 22% 30.04 in - SSE 15.0 mph 18.4 mph N/A   Clear
2:56 PM 37.2 °F 29.1 °F 4.8 °F 26% 30.01 in - SE 12.7 mph 20.7 mph N/A   Clear
3:42 PM 37.4 °F 29.3 °F 5.0 °F 26% 30.00 in - South 12.7 mph 18.4 mph N/A   Clear
3:56 PM 36.7 °F 28.9 °F 5.5 °F 27% 30.02 in - SSE 11.5 mph 19.6 mph N/A   Clear
4:56 PM 35.1 °F 26.9 °F 5.4 °F 29% 30.02 in - South 11.5 mph 20.7 mph N/A   Mostly Cloudy
5:56 PM 33.6 °F 24.6 °F 6.1 °F 32% 30.07 in - SSE 12.7 mph - N/A   Mostly Cloudy
6:56 PM 31.3 °F 24.7 °F 6.8 °F 36% 30.10 in - South 6.9 mph - N/A   Mostly Cloudy
7:56 PM 30.7 °F 24.1 °F 9.3 °F 41% 30.15 in - South 6.9 mph - N/A   Mostly Cloudy
8:56 PM 30.2 °F 22.6 °F 11.7 °F 46% 30.15 in - South 8.1 mph - N/A   Partly Cloudy
9:56 PM 29.8 °F 20.3 °F 13.1 °F 50% 30.16 in - South 11.5 mph - N/A   Clear
10:29 PM 26.6 °F 15.7 °F 15.8 °F 64% 30.09 in - SSE 12.7 mph 20.7 mph N/A   Mostly Cloudy
10:49 PM 24.8 °F - 17.6 °F 74% 30.11 in - Variable 2.3 mph 13.8 mph N/A   Overcast
10:56 PM 24.6 °F 17.7 °F 18.5 °F 78% 30.21 in - South 5.8 mph 13.8 mph N/A   Overcast
11:31 PM 23.0 °F 15.8 °F 19.4 °F 86% 30.12 in - Variable 5.8 mph - N/A   Overcast
11:56 PM 22.8 °F 13.6 °F 20.1 °F 89% 30.22 in - SSE 8.1 mph 16.1 mph N/A   Overcast